EN

Hourly Weather Cardiff

Today, 20 October, Tuesday

Time Temperature Precipitation Wind Pressure Humidity
00:00 +12°C° 0.4 mm 8 mps 748 mmHg 91%
01:00 +12°C° 0.2 mm 8 mps 747 mmHg 91%
02:00 +12°C° 0.2 mm 7 mps 747 mmHg 92%
03:00 +14°C° 0.2 mm 7 mps 746 mmHg 92%
04:00 +12°C° 0.1 mm 7 mps 746 mmHg 93%
05:00 +13°C° 0.1 mm 6 mps 746 mmHg 94%
06:00 +13°C° 0.1 mm 6 mps 746 mmHg 94%
07:00 +13°C° 0.1 mm 6 mps 746 mmHg 92%
08:00 +14°C° 0.1 mm 7 mps 746 mmHg 90%
09:00 +14°C° 0.1 mm 7 mps 747 mmHg 87%
10:00 +15°C° 0.2 mm 8 mps 747 mmHg 85%
11:00 +15°C° 0.2 mm 9 mps 747 mmHg 82%
12:00 +16°C° 0.2 mm 9 mps 747 mmHg 80%
13:00 +16°C° 0.2 mm 9 mps 747 mmHg 80%
14:00 +16°C° 0.2 mm 9 mps 747 mmHg 80%
15:00 +16°C° 0.2 mm 8 mps 746 mmHg 80%
16:00 +15°C° 0.1 mm 8 mps 746 mmHg 83%
17:00 +15°C° 0.1 mm 7 mps 746 mmHg 86%
18:00 +14°C° 0.1 mm 6 mps 746 mmHg 89%
19:00 +14°C° 0.2 mm 6 mps 746 mmHg 89%
20:00 +14°C° 0.2 mm 6 mps 746 mmHg 90%
21:00 +14°C° 0.2 mm 6 mps 746 mmHg 90%
22:00 +14°C° 0.1 mm 5 mps 746 mmHg 91%
23:00 +14°C° 0.1 mm 4 mps 746 mmHg 92%

Tomorrow, 21 October, Wednesday

Time Temperature Precipitation Wind Pressure Humidity
00:00 +14°C° 0.1 mm 4 mps 745 mmHg 94%
01:00 +13°C° 0.3 mm 3 mps 745 mmHg 95%
02:00 +13°C° 0.3 mm 3 mps 744 mmHg 95%
03:00 +13°C° 0.3 mm 3 mps 744 mmHg 96%
04:00 +14°C° 0.6 mm 2 mps 743 mmHg 97%
05:00 +13°C° 0.6 mm 2 mps 743 mmHg 97%
06:00 +13°C° 0.6 mm 1 mps 743 mmHg 97%
07:00 +13°C° 0.4 mm 2 mps 743 mmHg 96%
08:00 +13°C° 0.4 mm 3 mps 744 mmHg 95%
09:00 +13°C° 0.4 mm 3 mps 744 mmHg 93%
10:00 +13°C° 0.1 mm 4 mps 745 mmHg 93%
11:00 +13°C° 0.1 mm 6 mps 746 mmHg 93%
12:00 +14°C° 0.1 mm 7 mps 747 mmHg 92%
13:00 +14°C° 0.2 mm 6 mps 747 mmHg 92%
14:00 +14°C° 0.2 mm 6 mps 747 mmHg 92%
15:00 +14°C° 0.2 mm 5 mps 748 mmHg 91%
16:00 +14°C° 0.1 mm 4 mps 748 mmHg 92%
17:00 +13°C° 0.1 mm 4 mps 749 mmHg 92%
18:00 +12°C° 0.1 mm 3 mps 749 mmHg 92%
19:00 +12°C° 0 mm 3 mps 750 mmHg 93%
20:00 +11°C° 0 mm 3 mps 750 mmHg 93%
21:00 +11°C° 0 mm 3 mps 751 mmHg 94%
22:00 +11°C° 0 mm 4 mps 751 mmHg 94%
23:00 +11°C° 0 mm 4 mps 752 mmHg 94%

Day after tomorrow, 22 October, Thursday

Time Temperature Precipitation Wind Pressure Humidity
00:00 +10°C° 0 mm 4 mps 752 mmHg 94%
01:00 +10°C° 0 mm 4 mps 752 mmHg 94%
02:00 +10°C° 0 mm 4 mps 752 mmHg 94%
03:00 +10°C° 0 mm 4 mps 752 mmHg 94%
04:00 +9°C° 0 mm 3 mps 753 mmHg 95%
05:00 +9°C° 0 mm 3 mps 753 mmHg 95%
06:00 +9°C° 0 mm 3 mps 753 mmHg 95%
07:00 +10°C° 0 mm 3 mps 753 mmHg 93%
08:00 +11°C° 0 mm 3 mps 753 mmHg 91%
09:00 +13°C° 0 mm 2 mps 754 mmHg 89%
10:00 +12°C° 0 mm 3 mps 754 mmHg 85%
11:00 +13°C° 0 mm 3 mps 754 mmHg 81%
12:00 +14°C° 0 mm 3 mps 754 mmHg 77%
13:00 +15°C° 0 mm 2 mps 754 mmHg 77%
14:00 +15°C° 0 mm 2 mps 754 mmHg 76%
15:00 +15°C° 0 mm 1 mps 754 mmHg 75%
16:00 +14°C° 0 mm 1 mps 754 mmHg 80%
17:00 +12°C° 0 mm 1 mps 754 mmHg 84%
18:00 +11°C° 0 mm 1 mps 754 mmHg 88%
19:00 +10°C° 0 mm 2 mps 754 mmHg 90%
20:00 +10°C° 0 mm 2 mps 753 mmHg 91%
21:00 +10°C° 0 mm 2 mps 753 mmHg 92%
22:00 +10°C° 0.1 mm 3 mps 753 mmHg 93%
23:00 +10°C° 0.1 mm 3 mps 753 mmHg 94%

23 October, Friday

Time Temperature Precipitation Wind Pressure Humidity
00:00 +10°C° 0.1 mm 3 mps 753 mmHg 95%
01:00 +10°C° 0.1 mm 3 mps 752 mmHg 96%
02:00 +10°C° 0.1 mm 4 mps 752 mmHg 96%
03:00 +11°C° 0.1 mm 4 mps 752 mmHg 96%
04:00 +11°C° 0.1 mm 4 mps 752 mmHg 96%
05:00 +10°C° 0.1 mm 5 mps 751 mmHg 95%
06:00 +10°C° 0.1 mm 5 mps 751 mmHg 95%
07:00 +10°C° 0.1 mm 6 mps 751 mmHg 93%
08:00 +10°C° 0.1 mm 6 mps 751 mmHg 91%
09:00 +11°C° 0.1 mm 7 mps 751 mmHg 89%
10:00 +11°C° 0.1 mm 7 mps 752 mmHg 88%
11:00 +11°C° 0.1 mm 7 mps 752 mmHg 87%
12:00 +11°C° 0.1 mm 8 mps 752 mmHg 85%
13:00 +11°C° 0.2 mm 8 mps 753 mmHg 81%
14:00 +11°C° 0.2 mm 8 mps 753 mmHg 77%
15:00 +10°C° 0.2 mm 8 mps 753 mmHg 73%
16:00 +9°C° 0 mm 7 mps 754 mmHg 76%
17:00 +8°C° 0 mm 6 mps 754 mmHg 79%
18:00 +7°C° 0 mm 6 mps 755 mmHg 81%
19:00 +7°C° 0 mm 5 mps 756 mmHg 81%
20:00 +7°C° 0 mm 5 mps 756 mmHg 82%
21:00 +7°C° 0 mm 4 mps 757 mmHg 82%
22:00 +6°C° 0 mm 4 mps 757 mmHg 82%
23:00 +6°C° 0 mm 4 mps 757 mmHg 83%

24 October, Saturday

Time Temperature Precipitation Wind Pressure Humidity
00:00 +6°C° 0 mm 4 mps 757 mmHg 83%
01:00 +7°C° 0 mm 4 mps 757 mmHg 84%
02:00 +7°C° 0 mm 5 mps 757 mmHg 85%
03:00 +7°C° 0 mm 5 mps 756 mmHg 86%
04:00 +7°C° 0 mm 6 mps 756 mmHg 85%
05:00 +7°C° 0 mm 6 mps 756 mmHg 84%
06:00 +8°C° 0 mm 6 mps 756 mmHg 83%
07:00 +9°C° 0 mm 7 mps 755 mmHg 82%
08:00 +10°C° 0 mm 8 mps 755 mmHg 81%
09:00 +10°C° 0 mm 9 mps 754 mmHg 81%
10:00 +11°C° 0 mm 9 mps 754 mmHg 82%
11:00 +12°C° 0 mm 8 mps 753 mmHg 83%
12:00 +13°C° 0 mm 8 mps 753 mmHg 84%
13:00 +13°C° 0.1 mm 9 mps 752 mmHg 85%
14:00 +15°C° 0.1 mm 9 mps 751 mmHg 85%
15:00 +15°C° 0.1 mm 9 mps 751 mmHg 86%
16:00 +15°C° 0.3 mm 9 mps 750 mmHg 87%
17:00 +14°C° 0.3 mm 10 mps 750 mmHg 88%
18:00 +13°C° 0.3 mm 10 mps 749 mmHg 89%
19:00 +13°C° 0.8 mm 10 mps 749 mmHg 90%
20:00 +13°C° 0.8 mm 10 mps 749 mmHg 90%
21:00 +13°C° 0.8 mm 11 mps 749 mmHg 91%
22:00 +13°C° 2.6 mm 9 mps 748 mmHg 92%
23:00 +12°C° 2.6 mm 7 mps 748 mmHg 93%

25 October, Sunday

Time Temperature Precipitation Wind Pressure Humidity
00:00 +12°C° 2.6 mm 5 mps 747 mmHg 93%
01:00 +12°C° 1 mm 5 mps 747 mmHg 93%
02:00 +12°C° 1 mm 5 mps 747 mmHg 93%
03:00 +10°C° 1 mm 5 mps 747 mmHg 92%
04:00 +10°C° 0.5 mm 5 mps 747 mmHg 92%
05:00 +10°C° 0.5 mm 5 mps 747 mmHg 91%
06:00 +10°C° 0.5 mm 5 mps 748 mmHg 90%
07:00 +10°C° 0.3 mm 5 mps 748 mmHg 88%
08:00 +10°C° 0.3 mm 5 mps 748 mmHg 87%
09:00 +10°C° 0.3 mm 5 mps 749 mmHg 85%
10:00 +10°C° 0.3 mm 5 mps 749 mmHg 82%
11:00 +12°C° 0.3 mm 5 mps 749 mmHg 79%
12:00 +11°C° 0.3 mm 6 mps 749 mmHg 76%
13:00 +11°C° 0.1 mm 6 mps 749 mmHg 77%
14:00 +11°C° 0.1 mm 6 mps 749 mmHg 77%
15:00 +11°C° 0.1 mm 6 mps 750 mmHg 77%
16:00 +10°C° 0.2 mm 6 mps 750 mmHg 81%
17:00 +9°C° 0.2 mm 5 mps 750 mmHg 84%
18:00 +8°C° 0.2 mm 5 mps 750 mmHg 88%
19:00 +8°C° 0.1 mm 5 mps 751 mmHg 88%
20:00 +8°C° 0.1 mm 5 mps 751 mmHg 89%
21:00 +8°C° 0.1 mm 5 mps 751 mmHg 89%
22:00 +7°C° 0.1 mm 6 mps 751 mmHg 89%
23:00 +7°C° 0.1 mm 6 mps 751 mmHg 89%
Show more